Accueil
METAR-TAF:

METAR-TAF

Aéroports :

Base aérienne de Schaffen

Diest, Belgique

latitude: 51-00N, longitude: 005-04E, altitude: 30 m

Observation

Le bulletin a été fait il y a 38 minutes, à 06:03 UTC
Vent 7 kt de ouest
Température 6°C
Humidité 100%
Pression 1037 hPa
Visibilité: 2700 m
pluie faible

METAR: EBDT 050603Z AUTO 27007KT 2700 -RA OVC007/// 06/06 Q1037 YLO

Heure: 07:41 (06:41 UTC)


TAF: absent

Observations et prévisions météorologiques de plus de 4000 aéroports (messages METAR et TAF).

Les stations disponibles sont représentées par des disques jaunes et rouges sur la carte.

Passer la souris dessus pour voir le nom de la station.

Cliquer dessus pour voir les observations et prévisions météorologiques.

Pour changer de carte: cliquez sur les boutons verts avec une croix noire pour zoomer, sur le bouton vert avec un tiret pour effectuer un zoom arrière, ou sur les flèches vertes pour les cartes adjacentes.


METAR-TAF: